| time (UTC) | temp F | wind direction | speed MPH | gust MPH | rain 1hr in | rain 24hr in | rain mn in | humidity % | barometer mb |
| 20260505230047 | 84 | 252 | 0.0 | 4.0 | 0.00 | 0.00 | 0.00 | 73 | 1005.3 |
| 20260505224539 | 84 | 0 | 0.0 | 2.0 | 0.00 | 0.00 | 0.00 | 73 | 1005.2 |
| 20260505223059 | 84 | 0 | 0.0 | 2.0 | 0.00 | 0.00 | 0.00 | 73 | 1005.4 |
| 20260505221559 | 85 | 319 | 0.0 | 2.0 | 0.00 | 0.00 | 0.00 | 72 | 1005.3 |
| 20260505220050 | 85 | 13 | 0.0 | 3.0 | 0.00 | 0.00 | 0.00 | 71 | 1005.6 |
| 20260505214547 | 85 | 235 | 1.0 | 3.0 | 0.00 | 0.00 | 0.00 | 71 | 1005.8 |
| 20260505213050 | 84 | 272 | 0.0 | 3.0 | 0.00 | 0.00 | 0.00 | 73 | 1005.9 |
| 20260505211608 | 84 | 0 | 0.0 | 2.0 | 0.00 | 0.00 | 0.00 | 73 | 1005.9 |
| 20260505210044 | 85 | 250 | 0.0 | 3.0 | 0.00 | 0.00 | 0.00 | 73 | 1006.2 |
| 20260505204544 | 84 | 248 | 0.0 | 4.0 | 0.00 | 0.00 | 0.00 | 74 | 1006.3 |
| 20260505203052 | 83 | 0 | 0.0 | 2.0 | 0.00 | 0.00 | 0.00 | 76 | 1006.8 |
| 20260505201601 | 82 | 0 | 0.0 | 3.0 | 0.00 | 0.00 | 0.00 | 76 | 1007.0 |
| 20260505194600 | 82 | 317 | 0.0 | 4.0 | 0.00 | 0.00 | 0.00 | 77 | 1007.3 |
| 20260505193047 | 81 | 259 | 0.0 | 4.0 | 0.00 | 0.00 | 0.00 | 77 | 1007.3 |
| 20260505191547 | 80 | 267 | 0.0 | 4.0 | 0.00 | 0.00 | 0.00 | 78 | 1007.5 |
| 20260505190048 | 80 | 278 | 1.0 | 5.0 | 0.00 | 0.00 | 0.00 | 79 | 1007.7 |
| 20260505184549 | 79 | 236 | 0.0 | 2.0 | 0.00 | 0.00 | 0.00 | 80 | 1008.0 |
| 20260505183051 | 79 | 0 | 0.0 | 3.0 | 0.00 | 0.00 | 0.00 | 80 | 1008.1 |
| 20260505181547 | 78 | 287 | 0.0 | 5.0 | 0.00 | 0.00 | 0.00 | 81 | 1008.3 |
| 20260505180046 | 78 | 8 | 0.0 | 5.0 | 0.00 | 0.00 | 0.00 | 82 | 1008.4 |
| 20260505174550 | 77 | 23 | 0.0 | 2.0 | 0.00 | 0.00 | 0.00 | 83 | 1008.6 |
| 20260505173050 | 76 | 6 | 1.0 | 5.0 | 0.00 | 0.00 | 0.00 | 83 | 1008.9 |
| 20260505171546 | 76 | 0 | 0.0 | 5.0 | 0.00 | 0.00 | 0.00 | 84 | 1008.9 |
| 20260505170052 | 76 | 354 | 0.0 | 4.0 | 0.00 | 0.00 | 0.00 | 83 | 1008.9 |
| 20260505164551 | 75 | 0 | 0.0 | 4.0 | 0.00 | 0.00 | 0.00 | 85 | 1008.9 |
| 20260505163049 | 75 | 0 | 0.0 | 5.0 | 0.00 | 0.00 | 0.00 | 86 | 1008.8 |
| 20260505161548 | 74 | 0 | 0.0 | 3.0 | 0.00 | 0.00 | 0.00 | 87 | 1009.0 |
| 20260505153048 | 73 | 331 | 1.0 | 4.0 | 0.00 | 0.00 | 0.00 | 87 | 1009.0 |
| 20260505151548 | 73 | 0 | 0.0 | 3.0 | 0.00 | 0.00 | 0.00 | 88 | 1008.8 |
| 20260505124607 | 71 | 0 | 0.0 | 4.0 | 0.00 | 0.00 | 0.00 | 90 | 1007.7 |
| 20260505123105 | 71 | 0 | 0.0 | 5.0 | 0.00 | 0.00 | 0.00 | 90 | 1007.5 |
| 20260505121549 | 71 | 271 | 0.0 | 5.0 | 0.00 | 0.00 | 0.00 | 90 | 1007.3 |
| 20260505120051 | 71 | 0 | 0.0 | 2.0 | 0.00 | 0.00 | 0.00 | 90 | 1007.2 |
| 20260505114547 | 71 | 316 | 0.0 | 2.0 | 0.00 | 0.00 | 0.00 | 89 | 1007.2 |
| 20260505113041 | 71 | 297 | 1.0 | 6.0 | 0.00 | 0.00 | 0.00 | 88 | 1007.2 |
| 20260505111549 | 71 | 282 | 0.0 | 4.0 | 0.00 | 0.00 | 0.00 | 88 | 1007.1 |
| 20260505101544 | 71 | 252 | 0.0 | 7.0 | 0.00 | 0.00 | 0.00 | 88 | 1007.4 |
| 20260505100050 | 70 | 0 | 1.0 | 5.0 | 0.00 | 0.00 | 0.00 | 88 | 1007.5 |
| 20260505094549 | 71 | 0 | 0.0 | 2.0 | 0.00 | 0.00 | 0.00 | 87 | 1007.5 |
| 20260505093047 | 71 | 0 | 0.0 | 1.0 | 0.00 | 0.00 | 0.00 | 87 | 1007.6 |
| 20260505091550 | 71 | 0 | 0.0 | 3.0 | 0.00 | 0.00 | 0.00 | 87 | 1007.5 |
| 20260505090057 | 71 | 300 | 0.0 | 5.0 | 0.00 | 0.00 | 0.00 | 87 | 1007.6 |
| 20260505084551 | 71 | 252 | 0.0 | 7.0 | 0.00 | 0.00 | 0.00 | 87 | 1007.7 |
| 20260505083050 | 71 | 0 | 0.0 | 2.0 | 0.00 | 0.00 | 0.00 | 87 | 1007.9 |
| 20260505081555 | 71 | 0 | 0.0 | 7.0 | 0.00 | 0.00 | 0.00 | 87 | 1008.0 |
| 20260505080106 | 71 | 345 | 0.0 | 3.0 | 0.00 | 0.00 | 0.00 | 87 | 1008.3 |
| 20260505074552 | 71 | 0 | 0.0 | 5.0 | 0.00 | 0.00 | 0.00 | 86 | 1008.4 |
| 20260505073058 | 71 | 0 | 1.0 | 7.0 | 0.00 | 0.00 | 0.00 | 86 | 1008.5 |
| 20260505071549 | 71 | 0 | 0.0 | 3.0 | 0.00 | 0.00 | 0.00 | 86 | 1008.7 |
| 20260505070055 | 71 | 278 | 0.0 | 3.0 | 0.00 | 0.00 | 0.00 | 86 | 1008.8 |
| 20260505064546 | 71 | 93 | 0.0 | 7.0 | 0.00 | 0.00 | 0.00 | 86 | 1009.1 |
| 20260505063107 | 71 | 0 | 0.0 | 4.0 | 0.00 | 0.00 | 0.00 | 86 | 1009.1 |
| 20260505061544 | 71 | 350 | 1.0 | 4.0 | 0.00 | 0.00 | 0.00 | 86 | 1009.3 |
| 20260505060043 | 71 | 0 | 1.0 | 3.0 | 0.00 | 0.00 | 0.00 | 85 | 1009.3 |
| 20260505054604 | 71 | 0 | 0.0 | 2.0 | 0.00 | 0.00 | 0.00 | 85 | 1009.6 |
| 20260505053057 | 72 | 357 | 0.0 | 4.0 | 0.00 | 0.00 | 0.00 | 85 | 1009.2 |
| 20260505051546 | 72 | 242 | 0.0 | 5.0 | 0.00 | 0.00 | 0.00 | 84 | 1009.4 |
| 20260505041554 | 73 | 0 | 0.0 | 5.0 | 0.00 | 0.00 | 0.00 | 82 | 1009.0 |
| 20260505040054 | 73 | 0 | 0.0 | 3.0 | 0.00 | 0.00 | 0.00 | 82 | 1009.2 |
| 20260505034543 | 74 | 0 | 0.0 | 4.0 | 0.00 | 0.00 | 0.00 | 81 | 1009.1 |
| 20260505033041 | 74 | 276 | 0.0 | 1.0 | 0.00 | 0.00 | 0.00 | 80 | 1009.1 |
| 20260505031544 | 74 | 257 | 0.0 | 2.0 | 0.00 | 0.00 | 0.00 | 80 | 1009.0 |
| 20260505030048 | 75 | 326 | 0.0 | 2.0 | 0.00 | 0.00 | 0.00 | 79 | 1009.3 |
| 20260505024556 | 75 | 0 | 0.0 | 1.0 | 0.00 | 0.00 | 0.00 | 78 | 1009.0 |
| 20260505023045 | 75 | 302 | 0.0 | 1.0 | 0.00 | 0.00 | 0.00 | 78 | 1008.9 |
| 20260505021542 | 76 | 0 | 0.0 | 1.0 | 0.00 | 0.00 | 0.00 | 77 | 1009.0 |
| 20260505020041 | 76 | 0 | 0.0 | 1.0 | 0.00 | 0.00 | 0.00 | 76 | 1008.9 |
| 20260505014604 | 77 | 0 | 0.0 | 2.0 | 0.00 | 0.00 | 0.00 | 75 | 1008.9 |
| 20260505013049 | 77 | 256 | 0.0 | 3.0 | 0.00 | 0.00 | 0.00 | 74 | 1008.9 |
| 20260505011556 | 78 | 238 | 0.0 | 3.0 | 0.00 | 0.00 | 0.00 | 72 | 1008.8 |
| 20260505010052 | 78 | 313 | 1.0 | 7.0 | 0.00 | 0.00 | 0.00 | 70 | 1008.5 |
| 20260505004546 | 79 | 313 | 0.0 | 3.0 | 0.00 | 0.00 | 0.00 | 69 | 1008.6 |
| 20260505003048 | 80 | 324 | 0.0 | 8.0 | 0.00 | 0.00 | 0.00 | 67 | 1008.4 |
| 20260505001550 | 80 | 0 | 0.0 | 4.0 | 0.00 | 0.00 | 0.00 | 66 | 1008.4 |
| 20260505000100 | 81 | 0 | 0.0 | 4.0 | 0.00 | 0.00 | 0.00 | 65 | 1008.5 |
| 20260504234629 | 81 | 49 | 1.0 | 6.0 | 0.00 | 0.00 | 0.00 | 63 | 1008.7 |
| 20260504233330 | 82 | 0 | 1.0 | 4.0 | 0.00 | 0.00 | 0.00 | 63 | 1008.8 |